Weather Roundup
Issued by NWS

Home | Current Version | Previous Version | Text Only | Print | Product List | Glossary On
Versions: 1 2 3 4 5 6 7 8 9 10 11 12 13 14 15 16 17 18 19 20 21 22 23 24 25 26 27 28 29 30 31 32 33 34 35 36 37 38 39 40 41 42 43 44 45 46 47 48 49 50
861
NZUS93 KARX 161910
HRRWXR

CURRENT HOURLY OBSERVATIONS ACROSS
MUCH OF THE UPPER MISSISSIPPI VALLEY
NATIONAL WEATHER SERVICE LA CROSSE WI
100 PM CST SAT DEC 16 2017


...SOUTHEAST MINNESOTA...


CITY           SKY/WX    TMP DP  RH WIND       PRES   REMARKS
ROCHESTER      SUNNY     36  28  73 VRB3      29.84R
ROCHESTER/MAYO FAIR      37  28  71 NE8       29.85R WCI  31
WINONA           N/A     30  27  86 E6        29.91R WCI  24
AUSTIN         SUNNY     37  27  65 CALM      29.83S
ALBERT LEA     SUNNY     39  28  65 CALM      29.83S
DODGE CENTER   SUNNY     36  27  69 NE6       29.84R WCI  31
PRESTON        CLOUDY    35  25  67 E3        29.84S
OWATONNA       SUNNY     37  28  70 NE5       29.86R WCI  34
FARIBAULT      SUNNY     34  28  80 N6        29.86R WCI  29
$$

...ELSEWHERE IN MINNESOTA...


CITY           SKY/WX    TMP DP  RH WIND       PRES   REMARKS
MINNEAPOLIS    CLOUDY    28  25  88 E5        29.90R WCI  23
INTNL FALLS    LGT SNOW   7   1  76 E10       29.94S WCI  -8
DULUTH         CLOUDY    19  14  81 E12       29.93R WCI   7
RED WING       CLOUDY    28  21  74 E6        29.89S WCI  22
REDWOOD FALLS  CLOUDY    38  30  73 N8        29.88R WCI  32
MANKATO        SUNNY     34  28  79 NE6       29.87R WCI  29
WORTHINGTON    CLOUDY    42  30  62 N13       29.85R
FAIRMONT       SUNNY     42  30  62 N13       29.84S
$$

...SOUTHWEST WISCONSIN...


CITY           SKY/WX    TMP DP  RH WIND       PRES   REMARKS
LA CROSSE      CLOUDY    32  23  69 NE6       29.89R WCI  26
PRAIRIE DU CHI MOSUNNY   41  24  50 CALM      29.85R
BOSCOBEL       SUNNY     41  27  57 VRB5      29.87S
LONE ROCK      SUNNY     39  27  62 E8        29.88S WCI  33
PLATTEVILLE    SUNNY     43  28  54 SE5       29.85S
FORT MC COY    SUNNY     28  22  77 E10       29.91S WCI  19
CAMP DOUGLAS   CLOUDY    27  23  86 E10       29.91S WCI  17
MAUSTON-NEW LI CLOUDY    27  22  84 E3        29.90F
VIROQUA        FAIR      30  26  84 CALM      29.85S
WIS DELLS      CLOUDY    28  25  87 NE7       29.89F WCI  21
$$

...ELSEWHERE IN WISCONSIN...


CITY           SKY/WX    TMP DP  RH WIND       PRES   REMARKS
MILWAUKEE      MOSUNNY   41  27  57 E7        29.89R
MADISON        PTSUNNY   40  28  62 NE7       29.89R
GREEN BAY      CLOUDY    27  17  66 NE14      29.98R WCI  16
EAU CLAIRE     SUNNY     24  16  71 NE10      29.92R WCI  14
BLACK RVR FLS  CLOUDY    30  19  65 NE8       29.91R WCI  22
MEDFORD        CLOUDY    19  10  68 E6        29.92R WCI  11
WAUSAU         CLOUDY    19  11  70 E7        29.94R WCI  10
WIS RAPIDS     CLOUDY    22  15  75 E10       29.94F WCI  11
MARSHFIELD     CLOUDY    21  16  81 E12       29.91R WCI   9
RICE LAKE      CLOUDY    23  17  76 E8        29.93S WCI  14
$$

...NORTHEAST IOWA...


CITY           SKY/WX    TMP DP  RH WIND       PRES   REMARKS
WATERLOO       SUNNY     46  25  43 N3        29.83R
DUBUQUE        SUNNY     44  26  49 CALM      29.85R
DECORAH        MOSUNNY   39  27  60 E8        29.82S WCI  34
MASON CITY     CLOUDY    45  28  51 N7        29.83S
CHARLES CITY   MOSUNNY   45  28  53 VRB5      29.82S
OELWEIN        CLOUDY    45  28  53 CALM      29.83S
$$

...ELSEWHERE IN IOWA...


CITY           SKY/WX    TMP DP  RH WIND       PRES   REMARKS
DES MOINES     PTSUNNY   50  26  39 VRB5      29.83S
IOWA CITY      SUNNY     50  27  40 W6        29.86F
FORT DODGE     MOSUNNY   49  29  46 N6        29.83R
MARSHALLTOWN   SUNNY     50  27  40 W6        29.82S
CEDAR RAPIDS   SUNNY     49  26  41 SW6       29.83S
$$

...NORTHERN ILLINOIS...


CITY           SKY/WX    TMP DP  RH WIND       PRES   REMARKS
CHICAGO-OHARE  MOSUNNY   44  25  47 SW5       29.88F
CHICAGO-MIDWAY MOSUNNY   45  26  47 SW7       29.89F
MOLINE         SUNNY     50  26  39 SW7       29.85
ROCKFORD       MOSUNNY   44  26  49 CALM      29.88F
PEORIA         SUNNY     50  28  42 SW10      29.90F
$$

NOTE: "FAIR" INDICATES FEW OR NO CLOUDS BELOW 12,000 FEET WITH NO
SIGNIFICANT WEATHER AND/OR OBSTRUCTIONS TO VISIBILITY. WIND
SPEEDS ARE IN MILES-PER-HOUR.




USA.gov is the U.S. government's official web portal to all federal, state and local government web resources and services.